| time (UTC) | temp C | wind direction | speed KPH | gust KPH | rain 1hr cm | rain 24hr cm | rain mn cm | humidity % | barometer mb |
| 20260503200058 | 13 | 20 | 4.8 | 14.5 | 0.00 | 0.00 | 0.00 | 39 | 1014.1 |
| 20260503194621 | 13 | 55 | 6.4 | 17.7 | 0.00 | 0.00 | 0.00 | 39 | 1014.3 |
| 20260503193055 | 13 | 86 | 3.2 | 11.3 | 0.00 | 0.00 | 0.00 | 41 | 1014.5 |
| 20260503191558 | 13 | 48 | 1.6 | 12.9 | 0.00 | 0.00 | 0.00 | 41 | 1014.7 |
| 20260503190052 | 12 | 54 | 0.0 | 14.5 | 0.00 | 0.00 | 0.00 | 42 | 1014.8 |
| 20260503184551 | 12 | 27 | 6.4 | 16.1 | 0.00 | 0.00 | 0.00 | 41 | 1015.0 |
| 20260503183055 | 12 | 295 | 3.2 | 9.7 | 0.00 | 0.00 | 0.00 | 40 | 1015.0 |
| 20260503181559 | 12 | 41 | 3.2 | 17.7 | 0.00 | 0.00 | 0.00 | 40 | 1015.2 |
| 20260503180050 | 12 | 59 | 3.2 | 11.3 | 0.00 | 0.00 | 0.00 | 42 | 1015.3 |
| 20260503174547 | 12 | 55 | 8.0 | 20.9 | 0.00 | 0.00 | 0.00 | 43 | 1015.4 |
| 20260503173041 | 11 | 340 | 1.6 | 16.1 | 0.00 | 0.00 | 0.00 | 44 | 1015.4 |
| 20260503171539 | 11 | 62 | 3.2 | 14.5 | 0.00 | 0.00 | 0.00 | 42 | 1015.5 |
| 20260503081520 | 2 | 46 | 1.6 | 4.8 | 0.00 | 0.00 | 0.00 | 72 | 1015.6 |
| 20260503071508 | 2 | 63 | 0.0 | 3.2 | 0.00 | 0.00 | 0.00 | 72 | 1015.3 |
| 20260503054553 | 2 | 25 | 0.0 | 6.4 | 0.00 | 0.08 | 0.00 | 69 | 1015.3 |
| 20260503053051 | 3 | 49 | 1.6 | 6.4 | 0.00 | 0.08 | 0.00 | 67 | 1015.5 |
| 20260503051550 | 3 | 31 | 1.6 | 8.0 | 0.00 | 0.08 | 0.00 | 66 | 1015.5 |
| 20260503050046 | 3 | 64 | 0.0 | 4.8 | 0.00 | 0.08 | 0.00 | 66 | 1015.5 |
| 20260503044600 | 3 | 51 | 0.0 | 4.8 | 0.00 | 0.20 | 0.00 | 66 | 1015.5 |
| 20260503043043 | 3 | 49 | 0.0 | 6.4 | 0.00 | 0.20 | 0.00 | 66 | 1015.5 |
| 20260503041552 | 4 | 49 | 0.0 | 8.0 | 0.00 | 0.20 | 0.00 | 66 | 1015.5 |
| 20260503040049 | 4 | 65 | 0.0 | 4.8 | 0.00 | 0.20 | 0.00 | 67 | 1015.5 |
| 20260503034538 | 4 | 53 | 0.0 | 4.8 | 0.00 | 0.53 | 0.20 | 67 | 1015.6 |
| 20260503033041 | 4 | 51 | 0.0 | 3.2 | 0.00 | 0.53 | 0.20 | 67 | 1015.7 |
| 20260503031536 | 4 | 56 | 1.6 | 6.4 | 0.00 | 0.53 | 0.20 | 67 | 1015.7 |
| 20260503030036 | 4 | 354 | 0.0 | 6.4 | 0.00 | 0.53 | 0.20 | 67 | 1015.8 |
| 20260503024538 | 4 | 77 | 0.0 | 6.4 | 0.00 | 0.56 | 0.20 | 69 | 1015.8 |
| 20260503023034 | 4 | 56 | 0.0 | 3.2 | 0.00 | 0.56 | 0.20 | 70 | 1015.9 |
| 20260503021534 | 5 | 56 | 0.0 | 4.8 | 0.00 | 0.56 | 0.20 | 71 | 1015.9 |
| 20260503020033 | 4 | 309 | 0.0 | 6.4 | 0.00 | 0.56 | 0.20 | 71 | 1015.8 |
| 20260503014532 | 4 | 307 | 0.0 | 4.8 | 0.00 | 0.56 | 0.20 | 71 | 1015.7 |
| 20260503013032 | 4 | 283 | 0.0 | 1.6 | 0.00 | 0.56 | 0.20 | 75 | 1015.7 |
| 20260503011535 | 5 | 67 | 0.0 | 3.2 | 0.00 | 0.56 | 0.20 | 75 | 1015.5 |
| 20260503010033 | 4 | 273 | 0.0 | 1.6 | 0.00 | 0.56 | 0.20 | 76 | 1015.3 |
| 20260503004530 | 5 | 330 | 0.0 | 1.6 | 0.00 | 0.58 | 0.20 | 79 | 1015.2 |
| 20260503003030 | 5 | 46 | 0.0 | 3.2 | 0.00 | 0.58 | 0.20 | 78 | 1015.0 |
| 20260503001529 | 5 | 293 | 0.0 | 1.6 | 0.00 | 0.58 | 0.20 | 77 | 1015.1 |
| 20260503000030 | 5 | 104 | 1.6 | 4.8 | 0.00 | 0.58 | 0.20 | 75 | 1015.1 |
| 20260502234534 | 5 | 122 | 0.0 | 1.6 | 0.00 | 0.64 | 0.20 | 74 | 1014.9 |
| 20260502233028 | 5 | 75 | 0.0 | 0.0 | 0.00 | 0.00 | 0.20 | 74 | 1014.9 |
| 20260502231527 | 5 | 53 | 0.0 | 4.8 | 0.00 | 0.64 | 0.20 | 75 | 1014.8 |
| 20260502230026 | 5 | 62 | 0.0 | 6.4 | 0.00 | 0.64 | 0.20 | 75 | 1014.7 |
| 20260502224525 | 6 | 30 | 1.6 | 6.4 | 0.00 | 0.64 | 0.20 | 73 | 1014.7 |
| 20260502223025 | 6 | 88 | 0.0 | 3.2 | 0.00 | 0.64 | 0.20 | 73 | 1014.6 |
| 20260502221524 | 6 | 73 | 1.6 | 4.8 | 0.00 | 0.64 | 0.20 | 72 | 1014.5 |
| 20260502220028 | 6 | 70 | 1.6 | 4.8 | 0.00 | 0.64 | 0.20 | 72 | 1014.5 |
| 20260502214522 | 6 | 58 | 0.0 | 4.8 | 0.00 | 0.69 | 0.20 | 76 | 1014.5 |
| 20260502213029 | 6 | 79 | 0.0 | 6.4 | 0.00 | 0.69 | 0.20 | 75 | 1014.5 |
| 20260502211521 | 6 | 45 | 0.0 | 4.8 | 0.00 | 0.69 | 0.20 | 76 | 1014.5 |
| 20260502210023 | 6 | 81 | 1.6 | 3.2 | 0.00 | 0.69 | 0.20 | 74 | 1014.4 |
| 20260502204520 | 6 | 114 | 0.0 | 6.4 | 0.00 | 0.76 | 0.20 | 74 | 1014.3 |
| 20260502203020 | 6 | 56 | 1.6 | 6.4 | 0.00 | 0.76 | 0.20 | 75 | 1014.4 |
| 20260502201529 | 6 | 58 | 1.6 | 4.8 | 0.00 | 0.76 | 0.20 | 74 | 1014.4 |